JILIN-01 GAOFEN 2D (49256 NORAD) Tracking and Keplerian Element Data

This shows tracking and keplerian element data for the satellite.

Feedback or suggestion? Click here.




ElementValue
Catalog49256
NameJILIN-01 GAOFEN 2D
Epoch Orbit271
Epoch Day288.21939152
Epoch Year2021
RAAN33.7844
Inclination97.5417
Eccentricity0.0011271
Argument of Perigee199.929
Mean Anonmoly219.3501
Mean Motion15.0925356
Decay Rate1.623E-05
L11 49256U 21086A 21288.21939152 .00001623 00000-0 10581-3 0 9996
L22 49256 97.5417 33.7844 0011271 199.9290 219.3501 15.09253560 2718

Live tracking and technical data element details for JILIN-01 GAOFEN 2D (NORAD 49256). JILIN-01 GAOFEN 2D can be tracked NOW for your location showing map with azimuth and elevation plus other details from your city location.

Track the satellite on the map from your city or location and see movement details for azimuth, elevation, latitude, longitude, range, height, and movement on the map or in text.







IsCatalogInMostPopularTable: catalog: 49256, numindb: 7
Update: records affected: 1



GetName: 49256 JILIN-01 GAOFEN 2D

Hit Count: updated at: Tue, 19 Oct 2021 09:41:05 GMT